Regional Weather Roundup
Issued by NWS Northern Indiana

Home | Current Version | Previous Version | Text Only | Print | Product List | Glossary On
Versions: 1 2 3 4 5 6 7 8 9 10 11 12 13 14 15 16 17 18 19 20 21 22 23 24 25 26 27 28 29 30 31 32 33 34 35 36 37 38 39 40 41 42 43 44 45 46 47 48 49 50
000
ASUS43 KIWX 230910
RWRIWX

KIWX WEATHER ROUNDUP
NATIONAL WEATHER SERVICE NORTHERN INDIANA
500 AM EDT TUE SEP 23 2014

NOTE: "FAIR" INDICATES FEW OR NO CLOUDS BELOW 12,000 FEET WITH NO
SIGNIFICANT WEATHER AND/OR OBSTRUCTIONS TO VISIBILITY.

* THESE STATIONS ARE NOT UNDER NWS QUALITY CONTROL. THEY ALSO MAY NOT
  REPORT WEATHER SUCH AS PRECIPITATION OR FOG.

INZ001>027-231000-
NORTHERN INDIANA

CITY           SKY/WX    TMP DP  RH WIND       PRES   REMARKS
GARY*          CLEAR     47  43  88 CALM      30.30R
VALPARAISO     CLEAR     43  42  97 CALM      30.30R
MICHIGAN CITY* CLEAR     43  43 100 CALM      30.29S
LAPORTE*       CLEAR     41  41 100 CALM      30.30S
KNOX*          CLEAR     42  40  94 CALM      30.29R
SOUTH BEND     CLEAR     46  42  86 CALM      30.30S
GOSHEN         CLEAR    N/A N/A N/A CALM      30.30R
MONTICELLO*    CLEAR     42  42  99 CALM      30.29S
LOGANSPORT*    CLEAR     41  41 100 CALM      30.31R
ROCHESTER*     CLEAR     45  45 100 CALM      30.30S
WARSAW*        CLEAR     41  41 100 CALM      30.30R FOG
ANGOLA*        MOCLDY    41  41 100 CALM      30.30S VSB 3/4
FORT WAYNE     CLEAR     43  41  93 CALM      30.31R
HUNTINGTON*    CLEAR     43  42  98 CALM      30.30S
PERU/GRISSOM   CLEAR     45  45 100 SE1       30.29S
MARION*        PTCLDY    41  40  98 CALM      30.31S

$$
INZ028>050-231000-
CENTRAL INDIANA

CITY           SKY/WX    TMP DP  RH WIND       PRES   REMARKS
LAFAYETTE      CLEAR     45  44  97 CALM      30.29S
KOKOMO*        CLEAR     43  37  81 CALM      30.30S
MUNCIE*        CLEAR     43  41  93 CALM      30.30S
INDIANAPOLIS   CLEAR     50  44  80 N3        30.29S

$$
MIZ043>046-050>051-056>058-064>065-071>073-077>080-231000-
SOUTHWEST LOWER MICHIGAN

CITY           SKY/WX    TMP DP  RH WIND       PRES   REMARKS
BATTLE CREEK   CLEAR     45  42  89 S3        30.29S
BENTON HARBOR  CLEAR     43  42  97 CALM      30.29R
COLDWATER*     CLEAR     43  42  97 CALM      30.29S
HILLSDALE*     CLEAR     40  40 100 CALM      30.29S FOG
HOLLAND        CLEAR     48  43  82 S3        30.28R
GRAND RAPIDS   CLEAR     46  43  89 SE3       30.28R
KALAMAZOO      CLEAR     44  43  96 CALM      30.29R FOG
STURGIS*       CLEAR     43  41  93 CALM      30.29S
THREE RIVERS*  FAIR      44  43  96 CALM      30.30S FOG

$$
OHZ001>008-015>018-024>025-231000-
NORTHWEST OHIO

CITY           SKY/WX    TMP DP  RH WIND       PRES   REMARKS
WAUSEON*       FOG       41  41 100 CALM      30.30R VSB 1/2
DEFIANCE       CLEAR    N/A N/A N/A CALM      30.30R
FINDLAY        CLEAR     43  41  93 CALM      30.29R
TOLEDO EXPRESS CLEAR     43  40  89 CALM      30.30R
TOLEDO METCALF CLEAR     45  41  86 CALM      30.30S
LIMA           CLEAR     44  41  89 CALM      30.29S

$$
AND FOR LAKE MICHIGAN COASTAL AND OPEN LAKE BUOY OBSERVATIONS

STATION/POSITION TEMP    WIND        PRES    VSBY  WAVE
                 AIR SEA DIR/SP/G                  HT/PER
                 (F)     (DEG/KT/KT) (MB)    (MI)  (FT/S)
CALUMET HARBOR    53     210/  5/  7 1024.2R
SAINT JOSEPH      52     130/  1/  7 1026.1R
SOUTH LAKE BUOY   61 62  220/ 12/ 14 1024.8R         2/ 4
4 MI NW BRIDGMAN  58 64  160/ 10/ 14   N/A           2/ 3
MICHIGAN CITY     56 63  180/ 10/ 14   N/A           1/ 2

$$
&&


USA.gov is the U.S. government's official web portal to all federal, state and local government web resources and services.